Accueil
METAR-TAF:

METAR-TAF

Aéroports :

Millinocket Municipal Airport

Millinocket, Maine, États-Unis

latitude: 45-38-52N, longitude: 068-41-31W, altitude: 124 m

Observation

Le bulletin a été fait il y a 1 heure et 15 minutes, à 12:53 UTC
Vent 9 kt de nord/nord-ouest
Température 9°C
Humidité 49%
Pression 1018 hPa
Visibilité: 16.1 km
Ciel clair

METAR: KMLT 011253Z AUTO 33009KT 10SM CLR 09/M01 A3007 RMK AO2 SLP190 T00941006

Heure: 10:08 (14:08 UTC)


TAF: absent

Observations et prévisions météorologiques de plus de 4000 aéroports (messages METAR et TAF).

Les stations disponibles sont représentées par des disques jaunes et rouges sur la carte.

Passer la souris dessus pour voir le nom de la station.

Cliquer dessus pour voir les observations et prévisions météorologiques.

Pour changer de carte: cliquez sur les boutons verts avec une croix noire pour zoomer, sur le bouton vert avec un tiret pour effectuer un zoom arrière, ou sur les flèches vertes pour les cartes adjacentes.


METAR-TAF: